Location: Wildlife_Club
(35.6000°N, 81.4330°W)
Time: 21:52:30
(UTC-04:00)

SR - All Passes

Search period start: 24 June 2019 00:00
Search period end: 04 July 2019 00:00
Orbit: 582 x 874 km, 66.7° (Epoch: 24 June)

Date Brightness Start Highest point End Pass type
(mag) Time Alt. Az. Time Alt. Az. Time Alt. Az.
24 Jun - 04:07:16 10° SSW 04:11:31 81° ESE 04:15:47 10° NNE visible
24 Jun - 12:50:02 10° N 12:54:27 31° ENE 12:59:11 10° ESE daylight
24 Jun - 14:31:58 10° NW 14:36:26 31° WSW 14:41:11 10° S daylight
25 Jun - 03:18:16 10° S 03:22:02 31° ESE 03:25:49 10° NE visible
25 Jun - 05:00:57 10° W 05:04:05 20° NW 05:07:16 10° N visible
25 Jun - 12:01:29 10° NNE 12:04:32 16° NE 12:07:44 10° E daylight
25 Jun - 13:41:54 10° NNW 13:46:56 66° WSW 13:52:22 10° SSE daylight
26 Jun - 02:30:46 10° SE 02:32:43 13° ESE 02:34:40 10° ENE visible
26 Jun - 04:10:13 10° SW 04:14:15 43° WNW 04:18:22 10° NNE visible
26 Jun - 12:52:21 10° NNW 12:57:19 59° ENE 13:02:42 10° SE daylight
26 Jun - 14:35:58 10° WNW 14:38:59 16° WSW 14:42:08 10° SW daylight
27 Jun - 03:20:25 10° SSW 03:24:37 75° ESE 03:28:54 10° NNE visible
27 Jun - 05:06:57 10° NW 05:07:12 10° NW 05:07:27 10° NW visible
27 Jun - 12:03:12 10° N 12:07:35 29° ENE 12:12:15 10° ESE daylight
27 Jun - 13:45:01 10° NW 13:49:36 33° WSW 13:54:29 10° S daylight
28 Jun - 02:31:31 10° S 02:35:10 29° ESE 02:38:53 10° NE visible
28 Jun - 04:13:55 10° WSW 04:17:10 21° NW 04:20:29 10° N visible
28 Jun - 11:14:44 10° NNE 11:17:39 15° NE 11:20:41 10° E daylight
28 Jun - 12:55:01 10° NNW 13:00:05 71° WSW 13:05:35 10° SSE daylight
29 Jun - 01:44:18 10° SE 01:45:52 12° ESE 01:47:28 10° E visible
29 Jun - 03:23:17 10° SW 03:27:22 47° WNW 03:31:32 10° NNE visible
29 Jun - 12:05:29 10° NNW 12:10:28 55° ENE 12:15:51 10° SE daylight
29 Jun - 13:48:53 10° WNW 13:52:10 17° WSW 13:55:35 10° SW daylight
30 Jun - 02:33:34 10° SSW 02:37:45 69° ESE 02:42:01 10° NNE visible
30 Jun - 04:19:10 10° WNW 04:20:17 11° NW 04:21:24 10° NNW visible
30 Jun - 11:16:23 10° N 11:20:42 28° NE 11:25:18 10° ESE daylight
30 Jun - 12:58:04 10° NW 13:02:46 35° WSW 13:07:46 10° S daylight
01 Jul - 01:44:45 10° SSE 01:48:19 27° ESE 01:51:55 10° NE visible
01 Jul - 03:26:54 10° WSW 03:30:16 23° NW 03:33:43 10° N visible
01 Jul - 10:27:59 10° NNE 10:30:46 14° NE 10:33:37 10° E daylight
01 Jul - 12:08:07 10° NNW 12:13:14 76° WSW 12:18:46 10° SSE daylight
02 Jul - 00:57:56 10° ESE 00:59:02 11° ESE 01:00:07 10° E visible
02 Jul - 02:36:22 10° SW 02:40:29 51° WNW 02:44:42 10° NNE visible
02 Jul - 11:18:38 10° NNW 11:23:37 52° ENE 11:28:58 10° SE daylight
02 Jul - 13:01:50 10° WNW 13:05:21 18° WSW 13:09:00 10° SSW daylight
03 Jul - 01:46:43 10° SSW 01:50:53 63° ESE 01:55:08 10° NNE visible
03 Jul - 03:31:50 10° WNW 03:33:22 12° NW 03:34:55 10° NNW visible
03 Jul - 10:29:34 10° N 10:33:50 26° NE 10:38:21 10° ESE daylight
03 Jul - 12:11:09 10° NW 12:15:56 38° WSW 12:21:02 10° S daylight
